"Sample Date","Sample Time","Sample Value","Units","Flow Rate","Sample Interval","Number Channels","Micron Size 0","Counts/Channel 0","Micron Size 1","Counts/Channel 1","Micron Size 2","Counts/Channel 2","Micron Size 3","Counts/Channel 3","Micron Size 4","Counts/Channel 4","Micron Size 5","Counts/Channel 5","Micron Size 6","Counts/Channel 6","Micron Size 7","Counts/Channel 7","Micron Size 8","Counts/Channel 8","Micron Size 9","Counts/Channel 9","Micron Size 10","Counts/Channel 10","Micron Size 11","Counts/Channel 11","Micron Size 12","Counts/Channel 12","Micron Size 13","Counts/Channel 13","Micron Size 14","Counts/Channel 14","Micron Size 15","Counts/Channel 15","Micron Size 16","Counts/Channel 16","Micron Size 17","Counts/Channel 17","Micron Size 18","Counts/Channel 18","Micron Size 19","Counts/Channel 19","Micron Size 20","Counts/Channel 20","Micron Size 21","Counts/Channel 21","Micron Size 22","Counts/Channel 22","Micron Size 23","Counts/Channel 23","Micron Size 24","Counts/Channel 24","Micron Size 25","Counts/Channel 25","Micron Size 26","Counts/Channel 26","Micron Size 27","Counts/Channel 27","Micron Size 28","Counts/Channel 28","Micron Size 29","Counts/Channel 29","Micron Size 30","Counts/Channel 30","Micron Size 31","Counts/Channel 31"
"04/05/08","12:00:00",4940.000,"cc",28328.588,6.00,6,0.100,4728.000,0.200,196.000,0.300,16.000,0.500,0,1.000,0,5.000,0
"04/05/08","12:00:06",5149.000,"cc",28314.359,6.00,6,0.100,4936.000,0.200,184.000,0.300,27.000,0.500,2.000,1.000,0,5.000,0
"04/05/08","12:00:12",5023.000,"cc",28317.979,6.00,6,0.100,4818.000,0.200,184.000,0.300,20.000,0.500,1.000,1.000,0,5.000,0
"04/05/08","12:00:18",5094.000,"cc",28336.215,6.00,6,0.100,4848.000,0.200,231.000,0.300,15.000,0.500,0,1.000,0,5.000,0
"04/05/08","12:00:24",5025.000,"cc",28309.490,6.00,6,0.100,4787.000,0.200,221.000,0.300,16.000,0.500,1.000,1.000,0,5.000,0
"04/05/08","12:00:30",5119.000,"cc",28330.619,6.00,6,0.100,4907.000,0.200,189.000,0.300,22.000,0.500,1.000,1.000,0,5.000,0
"04/05/08","12:00:36",5249.000,"cc",28298.580,6.00,6,0.100,5035.000,0.200,196.000,0.300,18.000,0.500,0,1.000,0,5.000,0
"04/05/08","12:00:42",5192.000,"cc",28305.914,6.00,6,0.100,4980.000,0.200,195.000,0.300,14.000,0.500,3.000,1.000,0,5.000,0
"04/05/08","12:00:48",5247.000,"cc",28322.998,6.00,6,0.100,5013.000,0.200,213.000,0.300,21.000,0.500,0,1.000,0,5.000,0
"04/05/08","12:00:54",5164.000,"cc",28350.815,6.00,6,0.100,4934.000,0.200,212.000,0.300,16.000,0.500,2.000,1.000,0,5.000,0
"04/05/08","12:01:00",5226.000,"cc",28258.174,6.00,6,0.100,5009.000,0.200,206.000,0.300,10.000,0.500,1.000,1.000,0,5.000,0
"04/05/08","12:01:06",5122.000,"cc",28285.133,6.00,6,0.100,4901.000,0.200,204.000,0.300,17.000,0.500,0,1.000,0,5.000,0
"04/05/08","12:01:12",5060.000,"cc",28338.754,6.00,6,0.100,4833.000,0.200,207.000,0.300,20.000,0.500,0,1.000,0,5.000,0
"04/05/08","12:01:18",5193.000,"cc",28262.656,6.00,6,0.100,4953.000,0.200,220.000,0.300,19.000,0.500,1.000,1.000,0,5.000,0
"04/05/08","12:01:24",5159.000,"cc",28339.043,6.00,6,0.100,4948.000,0.200,190.000,0.300,19.000,0.500,2.000,1.000,0,5.000,0
"04/05/08","12:01:30",5260.000,"cc",28317.342,6.00,6,0.100,5028.000,0.200,206.000,0.300,20.000,0.500,5.000,1.000,1.000,5.000,0
"04/05/08","12:01:36",5334.000,"cc",28341.541,6.00,6,0.100,5091.000,0.200,218.000,0.300,21.000,0.500,4.000,1.000,0,5.000,0
"04/05/08","12:01:42",5402.000,"cc",28355.279,6.00,6,0.100,5154.000,0.200,218.000,0.300,29.000,0.500,1.000,1.000,0,5.000,0
"04/05/08","12:01:48",5645.000,"cc",28305.576,6.00,6,0.100,5408.000,0.200,216.000,0.300,20.000,0.500,1.000,1.000,0,5.000,0
"04/05/08","12:01:54",5489.000,"cc",28353.463,6.00,6,0.100,5226.000,0.200,245.000,0.300,17.000,0.500,1.000,1.000,0,5.000,0
"04/05/08","12:02:00",5286.000,"cc",28315.137,6.00,6,0.100,5079.000,0.200,187.000,0.300,19.000,0.500,1.000,1.000,0,5.000,0
"04/05/08","12:02:06",5425.000,"cc",28315.104,6.00,6,0.100,5161.000,0.200,240.000,0.300,21.000,0.500,3.000,1.000,0,5.000,0
"04/05/08","12:02:12",5427.000,"cc",28324.740,6.00,6,0.100,5184.000,0.200,228.000,0.300,12.000,0.500,3.000,1.000,0,5.000,0
"04/05/08","12:02:18",5498.000,"cc",28281.752,6.00,6,0.100,5243.000,0.200,236.000,0.300,18.000,0.500,1.000,1.000,0,5.000,0
"04/05/08","12:02:24",5828.000,"cc",28317.850,6.00,6,0.100,5560.000,0.200,250.000,0.300,18.000,0.500,0,1.000,0,5.000,0
"04/05/08","12:02:30",5527.000,"cc",28289.176,6.00,6,0.100,5260.000,0.200,247.000,0.300,19.000,0.500,1.000,1.000,0,5.000,0
"04/05/08","12:02:36",5580.000,"cc",28346.520,6.00,6,0.100,5344.000,0.200,217.000,0.300,19.000,0.500,0,1.000,0,5.000,0
"04/05/08","12:02:42",5582.000,"cc",28376.785,6.00,6,0.100,5321.000,0.200,240.000,0.300,19.000,0.500,2.000,1.000,0,5.000,0
"04/05/08","12:02:48",5553.000,"cc",28311.861,6.00,6,0.100,5343.000,0.200,193.000,0.300,14.000,0.500,3.000,1.000,0,5.000,0
"04/05/08","12:02:54",5327.000,"cc",28295.447,6.00,6,0.100,5089.000,0.200,215.000,0.300,20.000,0.500,3.000,1.000,0,5.000,0
"04/05/08","12:03:00",5439.000,"cc",28277.410,6.00,6,0.100,5196.000,0.200,216.000,0.300,25.000,0.500,2.000,1.000,0,5.000,0
"04/05/08","12:03:06",6009.000,"cc",28313.141,6.00,6,0.100,5728.000,0.200,256.000,0.300,23.000,0.500,2.000,1.000,0,5.000,0
"04/05/08","12:03:12",5824.000,"cc",28371.334,6.00,6,0.100,5544.000,0.200,255.000,0.300,25.000,0.500,0,1.000,0,5.000,0
"04/05/08","12:03:18",5900.000,"cc",28300.951,6.00,6,0.100,5639.000,0.200,234.000,0.300,23.000,0.500,4.000,1.000,0,5.000,0
"04/05/08","12:03:24",6000.000,"cc",28302.459,6.00,6,0.100,5731.000,0.200,247.000,0.300,21.000,0.500,1.000,1.000,0,5.000,0
"04/05/08","12:03:30",5747.000,"cc",28281.354,6.00,6,0.100,5473.000,0.200,253.000,0.300,19.000,0.500,2.000,1.000,0,5.000,0
"04/05/08","12:03:36",5657.000,"cc",28292.598,6.00,6,0.100,5398.000,0.200,240.000,0.300,18.000,0.500,1.000,1.000,0,5.000,0
"04/05/08","12:03:42",5516.000,"cc",28321.551,6.00,6,0.100,5257.000,0.200,232.000,0.300,24.000,0.500,3.000,1.000,0,5.000,0
"04/05/08","12:03:48",5578.000,"cc",28367.752,6.00,6,0.100,5318.000,0.200,243.000,0.300,17.000,0.500,0,1.000,0,5.000,0
"04/05/08","12:03:54",5295.000,"cc",28391.039,6.00,6,0.100,5043.000,0.200,232.000,0.300,18.000,0.500,2.000,1.000,0,5.000,0
"04/05/08","12:04:00",5665.000,"cc",28317.035,6.00,6,0.100,5412.000,0.200,228.000,0.300,20.000,0.500,5.000,1.000,0,5.000,0
"04/05/08","12:04:06",5802.000,"cc",28301.992,6.00,6,0.100,5532.000,0.200,247.000,0.300,20.000,0.500,3.000,1.000,0,5.000,0
"04/05/08","12:04:12",5832.000,"cc",28335.854,6.00,6,0.100,5560.000,0.200,253.000,0.300,16.000,0.500,3.000,1.000,0,5.000,0
"04/05/08","12:04:18",5860.000,"cc",28259.059,6.00,6,0.100,5586.000,0.200,249.000,0.300,25.000,0.500,0,1.000,0,5.000,0
"04/05/08","12:04:24",5612.000,"cc",28295.893,6.00,6,0.100,5329.000,0.200,264.000,0.300,17.000,0.500,2.000,1.000,0,5.000,0
"04/05/08","12:04:30",5691.000,"cc",28317.928,6.00,6,0.100,5455.000,0.200,214.000,0.300,22.000,0.500,0,1.000,0,5.000,0
"04/05/08","12:04:36",5887.000,"cc",28277.166,6.00,6,0.100,5616.000,0.200,244.000,0.300,22.000,0.500,5.000,1.000,0,5.000,0
"04/05/08","12:04:42",5831.000,"cc",28398.063,6.00,6,0.100,5513.000,0.200,290.000,0.300,28.000,0.500,0,1.000,0,5.000,0
"04/05/08","12:04:48",5727.000,"cc",28290.385,6.00,6,0.100,5434.000,0.200,263.000,0.300,27.000,0.500,3.000,1.000,0,5.000,0
"04/05/08","12:04:54",5981.000,"cc",28302.338,6.00,6,0.100,5689.000,0.200,264.000,0.300,22.000,0.500,6.000,1.000,0,5.000,0
"04/05/08","12:05:00",5740.000,"cc",28313.717,6.00,6,0.100,5441.000,0.200,270.000,0.300,28.000,0.500,1.000,1.000,0,5.000,0
"04/05/08","12:05:06",5827.000,"cc",28330.225,6.00,6,0.100,5554.000,0.200,255.000,0.300,16.000,0.500,2.000,1.000,0,5.000,0
"04/05/08","12:05:12",5623.000,"cc",28337.068,6.00,6,0.100,5311.000,0.200,284.000,0.300,28.000,0.500,0,1.000,0,5.000,0
"04/05/08","12:05:18",5820.000,"cc",28271.578,6.00,6,0.100,5538.000,0.200,257.000,0.300,25.000,0.500,0,1.000,0,5.000,0
"04/05/08","12:05:24",5822.000,"cc",28290.203,6.00,6,0.100,5536.000,0.200,272.000,0.300,14.000,0.500,0,1.000,0,5.000,0
"04/05/08","12:05:30",5906.000,"cc",28330.523,6.00,6,0.100,5625.000,0.200,258.000,0.300,23.000,0.500,0,1.000,0,5.000,0
"04/05/08","12:05:36",5869.000,"cc",28384.154,6.00,6,0.100,5603.000,0.200,242.000,0.300,21.000,0.500,3.000,1.000,0,5.000,0
"04/05/08","12:05:42",5767.000,"cc",28235.543,6.00,6,0.100,5486.000,0.200,254.000,0.300,24.000,0.500,3.000,1.000,0,5.000,0
"04/05/08","12:05:48",5863.000,"cc",28290.203,6.00,6,0.100,5574.000,0.200,267.000,0.300,17.000,0.500,5.000,1.000,0,5.000,0
"04/05/08","12:05:54",5597.000,"cc",28350.908,6.00,6,0.100,5322.000,0.200,250.000,0.300,21.000,0.500,4.000,1.000,0,5.000,0
"04/05/08","12:06:00",5588.000,"cc",28377.475,6.00,6,0.100,5314.000,0.200,252.000,0.300,21.000,0.500,1.000,1.000,0,5.000,0
"04/05/08","12:06:06",5569.000,"cc",28294.147,6.00,6,0.100,5319.000,0.200,229.000,0.300,18.000,0.500,3.000,1.000,0,5.000,0
"04/05/08","12:06:12",5650.000,"cc",28332.408,6.00,6,0.100,5379.000,0.200,251.000,0.300,16.000,0.500,4.000,1.000,0,5.000,0
"04/05/08","12:06:18",5424.000,"cc",28300.330,6.00,6,0.100,5184.000,0.200,219.000,0.300,20.000,0.500,1.000,1.000,0,5.000,0
"04/05/08","12:06:24",5775.000,"cc",28323.770,6.00,6,0.100,5472.000,0.200,286.000,0.300,16.000,0.500,1.000,1.000,0,5.000,0
"04/05/08","12:06:30",5636.000,"cc",28280.369,6.00,6,0.100,5358.000,0.200,247.000,0.300,30.000,0.500,1.000,1.000,0,5.000,0
"04/05/08","12:06:36",5588.000,"cc",28312.018,6.00,6,0.100,5307.000,0.200,257.000,0.300,22.000,0.500,2.000,1.000,0,5.000,0
"04/05/08","12:06:42",5426.000,"cc",28355.404,6.00,6,0.100,5153.000,0.200,252.000,0.300,21.000,0.500,0,1.000,0,5.000,0
"04/05/08","12:06:48",5624.000,"cc",28301.674,6.00,6,0.100,5315.000,0.200,276.000,0.300,30.000,0.500,3.000,1.000,0,5.000,0
"04/05/08","12:06:54",5545.000,"cc",28354.438,6.00,6,0.100,5250.000,0.200,281.000,0.300,13.000,0.500,1.000,1.000,0,5.000,0
"04/05/08","12:07:00",5610.000,"cc",28312.826,6.00,6,0.100,5342.000,0.200,248.000,0.300,19.000,0.500,1.000,1.000,0,5.000,0
"04/05/08","12:07:06",5397.000,"cc",28286.729,6.00,6,0.100,5132.000,0.200,246.000,0.300,17.000,0.500,2.000,1.000,0,5.000,0
"04/05/08","12:07:12",5087.000,"cc",28274.502,6.00,6,0.100,4817.000,0.200,252.000,0.300,15.000,0.500,3.000,1.000,0,5.000,0
"04/05/08","12:07:18",4744.000,"cc",28318.531,6.00,6,0.100,4497.000,0.200,225.000,0.300,20.000,0.500,2.000,1.000,0,5.000,0
"04/05/08","12:07:24",4692.000,"cc",28349.316,6.00,6,0.100,4457.000,0.200,221.000,0.300,14.000,0.500,0,1.000,0,5.000,0
"04/05/08","12:07:30",4965.000,"cc",28349.332,6.00,6,0.100,4725.000,0.200,213.000,0.300,26.000,0.500,1.000,1.000,0,5.000,0
"04/05/08","12:07:36",5278.000,"cc",28359.463,6.00,6,0.100,5023.000,0.200,231.000,0.300,21.000,0.500,3.000,1.000,0,5.000,0
"04/05/08","12:07:42",5264.000,"cc",28307.686,6.00,6,0.100,4992.000,0.200,254.000,0.300,18.000,0.500,0,1.000,0,5.000,0
"04/05/08","12:07:48",5010.000,"cc",28315.791,6.00,6,0.100,4734.000,0.200,250.000,0.300,25.000,0.500,1.000,1.000,0,5.000,0
"04/05/08","12:07:54",5490.000,"cc",28272.568,6.00,6,0.100,5194.000,0.200,275.000,0.300,20.000,0.500,1.000,1.000,0,5.000,0
"04/05/08","12:08:00",5146.000,"cc",28327.344,6.00,6,0.100,4882.000,0.200,243.000,0.300,20.000,0.500,1.000,1.000,0,5.000,0
"04/05/08","12:08:06",4435.000,"cc",28329.721,6.00,6,0.100,4202.000,0.200,220.000,0.300,12.000,0.500,1.000,1.000,0,5.000,0
"04/05/08","12:08:12",5242.000,"cc",28344.881,6.00,6,0.100,4979.000,0.200,243.000,0.300,20.000,0.500,0,1.000,0,5.000,0
"04/05/08","12:08:18",5442.000,"cc",28326.820,6.00,6,0.100,5159.000,0.200,263.000,0.300,20.000,0.500,0,1.000,0,5.000,0
"04/05/08","12:08:24",5465.000,"cc",28262.139,6.00,6,0.100,5173.000,0.200,277.000,0.300,13.000,0.500,2.000,1.000,0,5.000,0
"04/05/08","12:08:30",5369.000,"cc",28297.799,6.00,6,0.100,5073.000,0.200,274.000,0.300,21.000,0.500,1.000,1.000,0,5.000,0
"04/05/08","12:08:36",5309.000,"cc",28314.492,6.00,6,0.100,5033.000,0.200,262.000,0.300,14.000,0.500,0,1.000,0,5.000,0
"04/05/08","12:08:42",5412.000,"cc",28329.813,6.00,6,0.100,5112.000,0.200,274.000,0.300,23.000,0.500,3.000,1.000,0,5.000,0
"04/05/08","12:08:48",5389.000,"cc",28334.566,6.00,6,0.100,5092.000,0.200,272.000,0.300,23.000,0.500,2.000,1.000,0,5.000,0
"04/05/08","12:08:54",5588.000,"cc",28306.732,6.00,6,0.100,5306.000,0.200,261.000,0.300,16.000,0.500,5.000,1.000,0,5.000,0
"04/05/08","12:09:00",5554.000,"cc",28295.848,6.00,6,0.100,5290.000,0.200,239.000,0.300,21.000,0.500,4.000,1.000,0,5.000,0
"04/05/08","12:09:06",5778.000,"cc",28368.334,6.00,6,0.100,5504.000,0.200,253.000,0.300,20.000,0.500,1.000,1.000,0,5.000,0
"04/05/08","12:09:12",5453.000,"cc",28344.039,6.00,6,0.100,5153.000,0.200,276.000,0.300,23.000,0.500,1.000,1.000,0,5.000,0
"04/05/08","12:09:18",5621.000,"cc",28360.416,6.00,6,0.100,5324.000,0.200,277.000,0.300,19.000,0.500,1.000,1.000,0,5.000,0
"04/05/08","12:09:24",5430.000,"cc",28250.936,6.00,6,0.100,5153.000,0.200,251.000,0.300,23.000,0.500,3.000,1.000,0,5.000,0
"04/05/08","12:09:30",5225.000,"cc",28298.441,6.00,6,0.100,4960.000,0.200,238.000,0.300,27.000,0.500,0,1.000,0,5.000,0
"04/05/08","12:09:36",5085.000,"cc",28281.305,6.00,6,0.100,4831.000,0.200,227.000,0.300,25.000,0.500,2.000,1.000,0,5.000,0
"04/05/08","12:09:42",5256.000,"cc",28367.953,6.00,6,0.100,5003.000,0.200,246.000,0.300,7.000,0.500,0,1.000,0,5.000,0
"04/05/08","12:09:48",5673.000,"cc",28322.611,6.00,6,0.100,5385.000,0.200,269.000,0.300,19.000,0.500,0,1.000,0,5.000,0
"04/05/08","12:09:54",5465.000,"cc",28314.412,6.00,6,0.100,5176.000,0.200,268.000,0.300,19.000,0.500,2.000,1.000,0,5.000,0
"04/05/08","12:10:00",5664.000,"cc",28294.672,6.00,6,0.100,5389.000,0.200,248.000,0.300,27.000,0.500,0,1.000,0,5.000,0
"04/05/08","12:10:06",5461.000,"cc",28293.578,6.00,6,0.100,5182.000,0.200,264.000,0.300,14.000,0.500,1.000,1.000,0,5.000,0
"04/05/08","12:10:12",5633.000,"cc",28356.596,6.00,6,0.100,5336.000,0.200,269.000,0.300,26.000,0.500,2.000,1.000,0,5.000,0
"04/05/08","12:10:18",5616.000,"cc",28295.957,6.00,6,0.100,5335.000,0.200,262.000,0.300,18.000,0.500,1.000,1.000,0,5.000,0
"04/05/08","12:10:24",5377.000,"cc",28296.229,6.00,6,0.100,5083.000,0.200,254.000,0.300,37.000,0.500,3.000,1.000,0,5.000,0
"04/05/08","12:10:30",5474.000,"cc",28327.672,6.00,6,0.100,5134.000,0.200,312.000,0.300,25.000,0.500,3.000,1.000,0,5.000,0
"04/05/08","12:10:36",5316.000,"cc",28350.856,6.00,6,0.100,5034.000,0.200,263.000,0.300,17.000,0.500,2.000,1.000,0,5.000,0
"04/05/08","12:10:42",5138.000,"cc",28302.594,6.00,6,0.100,4848.000,0.200,273.000,0.300,15.000,0.500,2.000,1.000,0,5.000,0
"04/05/08","12:10:48",5485.000,"cc",28296.570,6.00,6,0.100,5127.000,0.200,328.000,0.300,29.000,0.500,1.000,1.000,0,5.000,0
"04/05/08","12:10:54",5554.000,"cc",28292.195,6.00,6,0.100,5210.000,0.200,321.000,0.300,23.000,0.500,0,1.000,0,5.000,0
"04/05/08","12:11:00",5589.000,"cc",28335.561,6.00,6,0.100,5216.000,0.200,353.000,0.300,19.000,0.500,1.000,1.000,0,5.000,0
"04/05/08","12:11:06",5470.000,"cc",28338.494,6.00,6,0.100,5111.000,0.200,338.000,0.300,20.000,0.500,1.000,1.000,0,5.000,0
"04/05/08","12:11:12",5420.000,"cc",28349.627,6.00,6,0.100,5091.000,0.200,296.000,0.300,30.000,0.500,3.000,1.000,0,5.000,0
"04/05/08","12:11:18",5730.000,"cc",28301.656,6.00,6,0.100,5421.000,0.200,289.000,0.300,20.000,0.500,0,1.000,0,5.000,0
"04/05/08","12:11:24",5784.000,"cc",28333.725,6.00,6,0.100,5465.000,0.200,296.000,0.300,20.000,0.500,3.000,1.000,0,5.000,0
"04/05/08","12:11:30",5632.000,"cc",28261.785,6.00,6,0.100,5343.000,0.200,272.000,0.300,16.000,0.500,1.000,1.000,0,5.000,0
"04/05/08","12:11:36",5638.000,"cc",28295.424,6.00,6,0.100,5336.000,0.200,285.000,0.300,16.000,0.500,0,1.000,1.000,5.000,0
"04/05/08","12:11:42",5677.000,"cc",28330.877,6.00,6,0.100,5333.000,0.200,318.000,0.300,26.000,0.500,0,1.000,0,5.000,0
"04/05/08","12:11:48",5484.000,"cc",28293.356,6.00,6,0.100,5164.000,0.200,303.000,0.300,16.000,0.500,1.000,1.000,0,5.000,0
"04/05/08","12:11:54",5686.000,"cc",28338.707,6.00,6,0.100,5379.000,0.200,289.000,0.300,18.000,0.500,0,1.000,0,5.000,0
"04/05/08","12:12:00",5738.000,"cc",28336.629,6.00,6,0.100,5405.000,0.200,302.000,0.300,28.000,0.500,3.000,1.000,0,5.000,0
"04/05/08","12:12:06",5448.000,"cc",28337.826,6.00,6,0.100,5114.000,0.200,309.000,0.300,25.000,0.500,0,1.000,0,5.000,0
"04/05/08","12:12:12",5510.000,"cc",28335.572,6.00,6,0.100,5123.000,0.200,325.000,0.300,52.000,0.500,9.000,1.000,1.000,5.000,0
"04/05/08","12:12:18",5568.000,"cc",28305.492,6.00,6,0.100,5224.000,0.200,318.000,0.300,25.000,0.500,1.000,1.000,0,5.000,0
"04/05/08","12:12:24",5693.000,"cc",28255.053,6.00,6,0.100,5356.000,0.200,297.000,0.300,32.000,0.500,8.000,1.000,0,5.000,0
"04/05/08","12:12:30",5551.000,"cc",28356.961,6.00,6,0.100,5205.000,0.200,316.000,0.300,21.000,0.500,9.000,1.000,0,5.000,0
"04/05/08","12:12:36",5635.000,"cc",28327.768,6.00,6,0.100,5311.000,0.200,304.000,0.300,20.000,0.500,0,1.000,0,5.000,0
"04/05/08","12:12:42",5614.000,"cc",28327.695,6.00,6,0.100,5296.000,0.200,293.000,0.300,25.000,0.500,0,1.000,0,5.000,0
"04/05/08","12:12:48",5700.000,"cc",28283.219,6.00,6,0.100,5374.000,0.200,302.000,0.300,22.000,0.500,2.000,1.000,0,5.000,0
"04/05/08","12:12:54",5832.000,"cc",28264.385,6.00,6,0.100,5492.000,0.200,305.000,0.300,34.000,0.500,1.000,1.000,0,5.000,0
"04/05/08","12:13:00",5821.000,"cc",28361.785,6.00,6,0.100,5504.000,0.200,286.000,0.300,28.000,0.500,3.000,1.000,0,5.000,0
"04/05/08","12:13:06",5738.000,"cc",28338.252,6.00,6,0.100,5440.000,0.200,279.000,0.300,18.000,0.500,1.000,1.000,0,5.000,0
"04/05/08","12:13:12",5485.000,"cc",28367.594,6.00,6,0.100,5161.000,0.200,304.000,0.300,17.000,0.500,3.000,1.000,0,5.000,0
"04/05/08","12:13:18",5284.000,"cc",28274.678,6.00,6,0.100,4981.000,0.200,280.000,0.300,21.000,0.500,2.000,1.000,0,5.000,0
"04/05/08","12:13:24",5026.000,"cc",28265.934,6.00,6,0.100,4673.000,0.200,318.000,0.300,30.000,0.500,5.000,1.000,0,5.000,0
"04/05/08","12:13:30",5423.000,"cc",28314.195,6.00,6,0.100,5088.000,0.200,315.000,0.300,18.000,0.500,2.000,1.000,0,5.000,0
"04/05/08","12:13:36",5408.000,"cc",28310.643,6.00,6,0.100,5092.000,0.200,300.000,0.300,13.000,0.500,3.000,1.000,0,5.000,0
"04/05/08","12:13:42",5562.000,"cc",28369.127,6.00,6,0.100,5237.000,0.200,312.000,0.300,13.000,0.500,0,1.000,0,5.000,0
"04/05/08","12:13:48",5603.000,"cc",28276.455,6.00,6,0.100,5269.000,0.200,315.000,0.300,18.000,0.500,1.000,1.000,0,5.000,0
"04/05/08","12:13:54",5786.000,"cc",28320.018,6.00,6,0.100,5482.000,0.200,283.000,0.300,18.000,0.500,3.000,1.000,0,5.000,0
"04/05/08","12:14:00",5809.000,"cc",28333.379,6.00,6,0.100,5485.000,0.200,302.000,0.300,22.000,0.500,0,1.000,0,5.000,0
"04/05/08","12:14:06",5587.000,"cc",28310.807,6.00,6,0.100,5256.000,0.200,304.000,0.300,24.000,0.500,2.000,1.000,1.000,5.000,0
"04/05/08","12:14:12",5700.000,"cc",28306.959,6.00,6,0.100,5366.000,0.200,300.000,0.300,26.000,0.500,7.000,1.000,1.000,5.000,0
"04/05/08","12:14:18",5444.000,"cc",28336.268,6.00,6,0.100,5121.000,0.200,290.000,0.300,27.000,0.500,5.000,1.000,1.000,5.000,0
"04/05/08","12:14:24",5310.000,"cc",28361.121,6.00,6,0.100,4973.000,0.200,308.000,0.300,29.000,0.500,0,1.000,0,5.000,0
"04/05/08","12:14:30",5359.000,"cc",28276.875,6.00,6,0.100,5078.000,0.200,257.000,0.300,20.000,0.500,4.000,1.000,0,5.000,0
"04/05/08","12:14:36",5469.000,"cc",28383.574,6.00,6,0.100,5169.000,0.200,281.000,0.300,17.000,0.500,1.000,1.000,1.000,5.000,0
"04/05/08","12:14:42",5472.000,"cc",28311.863,6.00,6,0.100,5115.000,0.200,300.000,0.300,41.000,0.500,16.000,1.000,0,5.000,0
"04/05/08","12:14:48",5438.000,"cc",28257.732,6.00,6,0.100,5126.000,0.200,293.000,0.300,19.000,0.500,0,1.000,0,5.000,0
"04/05/08","12:14:54",5646.000,"cc",28313.139,6.00,6,0.100,5347.000,0.200,277.000,0.300,21.000,0.500,1.000,1.000,0,5.000,0
"04/05/08","12:15:00",5562.000,"cc",28362.359,6.00,6,0.100,5235.000,0.200,310.000,0.300,16.000,0.500,1.000,1.000,0,5.000,0
"04/05/08","12:15:06",5577.000,"cc",28336.449,6.00,6,0.100,5292.000,0.200,258.000,0.300,27.000,0.500,0,1.000,0,5.000,0
"04/05/08","12:15:12",5875.000,"cc",28312.445,6.00,6,0.100,5556.000,0.200,295.000,0.300,16.000,0.500,7.000,1.000,1.000,5.000,0
"04/05/08","12:15:18",6027.000,"cc",28321.873,6.00,6,0.100,5688.000,0.200,316.000,0.300,23.000,0.500,0,1.000,0,5.000,0
"04/05/08","12:15:24",5817.000,"cc",28278.912,6.00,6,0.100,5502.000,0.200,295.000,0.300,19.000,0.500,1.000,1.000,0,5.000,0
"04/05/08","12:15:30",5763.000,"cc",28338.328,6.00,6,0.100,5475.000,0.200,269.000,0.300,18.000,0.500,1.000,1.000,0,5.000,0
"04/05/08","12:15:36",5924.000,"cc",28262.010,6.00,6,0.100,5547.000,0.200,324.000,0.300,40.000,0.500,11.000,1.000,2.000,5.000,0
"04/05/08","12:15:42",6164.000,"cc",28272.484,6.00,6,0.100,5804.000,0.200,324.000,0.300,35.000,0.500,1.000,1.000,0,5.000,0
"04/05/08","12:15:48",6137.000,"cc",28386.346,6.00,6,0.100,5812.000,0.200,305.000,0.300,20.000,0.500,0,1.000,0,5.000,0
"04/05/08","12:15:54",6121.000,"cc",28318.045,6.00,6,0.100,5816.000,0.200,287.000,0.300,18.000,0.500,0,1.000,0,5.000,0
"04/05/08","12:16:00",6059.000,"cc",28355.916,6.00,6,0.100,5751.000,0.200,292.000,0.300,16.000,0.500,0,1.000,0,5.000,0
"04/05/08","12:16:06",6063.000,"cc",28301.920,6.00,6,0.100,5756.000,0.200,285.000,0.300,20.000,0.500,2.000,1.000,0,5.000,0
"04/05/08","12:16:12",6183.000,"cc",28304.316,6.00,6,0.100,5859.000,0.200,307.000,0.300,17.000,0.500,0,1.000,0,5.000,0
"04/05/08","12:16:18",6394.000,"cc",28280.721,6.00,6,0.100,6044.000,0.200,318.000,0.300,27.000,0.500,4.000,1.000,1.000,5.000,0
"04/05/08","12:16:24",6420.000,"cc",28373.686,6.00,6,0.100,6102.000,0.200,303.000,0.300,15.000,0.500,0,1.000,0,5.000,0
"04/05/08","12:16:30",6433.000,"cc",28282.606,6.00,6,0.100,6141.000,0.200,273.000,0.300,19.000,0.500,0,1.000,0,5.000,0
"04/05/08","12:16:36",6722.000,"cc",28315.496,6.00,6,0.100,6266.000,0.200,372.000,0.300,52.000,0.500,26.000,1.000,6.000,5.000,0
"04/05/08","12:16:42",6532.000,"cc",28300.615,6.00,6,0.100,6199.000,0.200,310.000,0.300,22.000,0.500,1.000,1.000,0,5.000,0
"04/05/08","12:16:48",6473.000,"cc",28335.815,6.00,6,0.100,6151.000,0.200,299.000,0.300,20.000,0.500,3.000,1.000,0,5.000,0
"04/05/08","12:16:54",6261.000,"cc",28324.508,6.00,6,0.100,5965.000,0.200,281.000,0.300,14.000,0.500,0,1.000,1.000,5.000,0
"04/05/08","12:17:00",6535.000,"cc",28375.475,6.00,6,0.100,6214.000,0.200,302.000,0.300,17.000,0.500,2.000,1.000,0,5.000,0
"04/05/08","12:17:06",6540.000,"cc",28243.584,6.00,6,0.100,6203.000,0.200,324.000,0.300,12.000,0.500,1.000,1.000,0,5.000,0
"04/05/08","12:17:12",6336.000,"cc",28295.690,6.00,6,0.100,6013.000,0.200,314.000,0.300,9.000,0.500,0,1.000,0,5.000,0
"04/05/08","12:17:18",6026.000,"cc",28334.176,6.00,6,0.100,5725.000,0.200,287.000,0.300,13.000,0.500,1.000,1.000,0,5.000,0
"04/05/08","12:17:24",5963.000,"cc",28372.037,6.00,6,0.100,5647.000,0.200,292.000,0.300,22.000,0.500,2.000,1.000,0,5.000,0
"04/05/08","12:17:30",6300.000,"cc",28322.734,6.00,6,0.100,5992.000,0.200,302.000,0.300,6.000,0.500,0,1.000,0,5.000,0
"04/05/08","12:17:36",6585.000,"cc",28333.512,6.00,6,0.100,6263.000,0.200,307.000,0.300,15.000,0.500,0,1.000,0,5.000,0
"04/05/08","12:17:42",6618.000,"cc",28267.721,6.00,6,0.100,6316.000,0.200,285.000,0.300,15.000,0.500,1.000,1.000,1.000,5.000,0
"04/05/08","12:17:48",6648.000,"cc",28312.445,6.00,6,0.100,6361.000,0.200,264.000,0.300,21.000,0.500,2.000,1.000,0,5.000,0
"04/05/08","12:17:54",6631.000,"cc",28291.508,6.00,6,0.100,6318.000,0.200,302.000,0.300,10.000,0.500,1.000,1.000,0,5.000,0
"04/05/08","12:18:00",6456.000,"cc",28302.488,6.00,6,0.100,6156.000,0.200,278.000,0.300,22.000,0.500,0,1.000,0,5.000,0
"04/05/08","12:18:06",6423.000,"cc",28338.678,6.00,6,0.100,6148.000,0.200,263.000,0.300,10.000,0.500,2.000,1.000,0,5.000,0
"04/05/08","12:18:12",6346.000,"cc",28357.318,6.00,6,0.100,6037.000,0.200,290.000,0.300,18.000,0.500,1.000,1.000,0,5.000,0
"04/05/08","12:18:18",6495.000,"cc",28316.172,6.00,6,0.100,6211.000,0.200,269.000,0.300,15.000,0.500,0,1.000,0,5.000,0